2016-06-19 00:02:51 r, 17.96m,0000000006Hz,0000083737c,0000000.182s, 029.9C,00002191
2016-06-19 00:12:51 r, 18.41m,0000000004Hz,0000126052c,0000000.274s, 029.9C,00002191
2016-06-19 00:22:51 r, 17.96m,0000000006Hz,0000083756c,0000000.182s, 029.6C,00002191
2016-06-19 00:32:51 r, 18.71m,0000000003Hz,0000167907c,0000000.364s, 029.6C,00002191
2016-06-19 00:42:51 r, 18.70m,0000000003Hz,0000165138c,0000000.358s, 029.6C,00002191
2016-06-19 00:52:51 r, 18.66m,0000000003Hz,0000159722c,0000000.347s, 029.6C,00002191
2016-06-19 01:02:51 r, 18.53m,0000000003Hz,0000142343c,0000000.309s, 029.3C,00002191
2016-06-19 01:12:51 r, 18.29m,0000000004Hz,0000114056c,0000000.248s, 029.3C,00002191
2016-06-19 01:22:51 r, 18.18m,0000000005Hz,0000103378c,0000000.224s, 029.0C,00002191
2016-06-19 01:32:51 r, 18.07m,0000000005Hz,0000092823c,0000000.201s, 029.0C,00002191
2016-06-19 01:42:51 r, 17.91m,0000000006Hz,0000080355c,0000000.174s, 029.0C,00002191
2016-06-19 01:52:51 r, 17.86m,0000000006Hz,0000076464c,0000000.166s, 029.3C,00002191
2016-06-19 02:02:51 r, 18.18m,0000000004Hz,0000102736c,0000000.223s, 029.3C,00002191
2016-06-19 02:12:51 r, 18.18m,0000000005Hz,0000102788c,0000000.223s, 029.6C,00002191
2016-06-19 02:22:51 r, 18.45m,0000000003Hz,0000131166c,0000000.285s, 029.9C,00002191
2016-06-19 02:32:51 r, 18.73m,0000000003Hz,0000171728c,0000000.373s, 029.9C,00002191
2016-06-19 02:42:51 r, 18.92m,0000000002Hz,0000202639c,0000000.440s, 030.2C,00002191
2016-06-19 02:52:51 r, 19.31m,0000000001Hz,0000292660c,0000000.635s, 030.6C,00002191
2016-06-19 03:02:51 r, 19.22m,0000000002Hz,0000267647c,0000000.581s, 030.6C,00002191
2016-06-19 03:12:51 r, 19.39m,0000000002Hz,0000312960c,0000000.679s, 030.6C,00002191
2016-06-19 03:24:20 r, 19.93m,0000000000Hz,0000509506c,0000001.106s, 030.6C,00002191
2016-06-19 03:34:20 r, 19.99m,0000000001Hz,0000541760c,0000001.176s, 029.6C,00002191
2016-06-19 03:44:20 r, 19.64m,0000000001Hz,0000393705c,0000000.854s, 029.0C,00002191
2016-06-19 03:54:20 r, 19.66m,0000000002Hz,0000400397c,0000000.869s, 028.6C,00002191
2016-06-19 04:04:20 r, 19.48m,0000000001Hz,0000338764c,0000000.735s, 028.3C,00002191
2016-06-19 04:14:21 r, 18.76m,0000000003Hz,0000174709c,0000000.379s, 028.3C,00002191
2016-06-19 04:24:20 r, 16.96m,0000000014Hz,0000033359c,0000000.072s, 028.3C,00002191
2016-06-19 04:34:20 r, 14.77m,0000000102Hz,0000004448c,0000000.010s, 028.6C,00002191
2016-06-19 04:44:20 r, 13.38m,0000000375Hz,0000000000c,0000000.000s, 028.6C,00002191
2016-06-19 04:54:19 r, 12.25m,0000001068Hz,0000000000c,0000000.000s, 028.6C,00002191
2016-06-19 05:04:20 r, 09.95m,0000008907Hz,0000000000c,0000000.000s, 029.0C,00002191
2016-06-19 05:14:20 r, 09.56m,0000012655Hz,0000000000c,0000000.000s, 029.0C,00002191
2016-06-19 05:24:20 r, 08.79m,0000025608Hz,0000000000c,0000000.000s, 029.0C,00002191
2016-06-19 05:34:20 r, 07.19m,0000112257Hz,0000000000c,0000000.000s, 029.0C,00002191
2016-06-19 05:44:21 r, 06.24m,0000270487Hz,0000000000c,0000000.000s, 029.0C,00002191
2016-06-19 05:54:20 r, 00.00m,0000412287Hz,0000000000c,0000000.000s, 029.0C,00002191
2016-06-19 06:04:20 r, 05.87m,0000380193Hz,0000000000c,0000000.000s, 029.0C,00002191
2016-06-19 06:14:20 r, 00.00m,0000595225Hz,0000000000c,0000000.000s, 029.3C,00002191
2016-06-19 06:24:20 r, 00.00m,0000569446Hz,0000000000c,0000000.000s, 029.0C,00002191
2016-06-19 06:34:20 r, 00.00m,0000595201Hz,0000000000c,0000000.000s, 029.3C,00002191
2016-06-19 06:44:20 r, 00.00m,0000595249Hz,0000000000c,0000000.000s, 029.3C,00002191
2016-06-19 06:54:20 r, 00.00m,0000595206Hz,0000000000c,0000000.000s, 029.3C,00002191
2016-06-19 07:04:19 r, 00.00m,0000595170Hz,0000000000c,0000000.000s, 030.2C,00002191
2016-06-19 07:14:19 r, 00.00m,0000595145Hz,0000000000c,0000000.000s, 030.6C,00002191
2016-06-19 07:24:20 r, 00.00m,0000595138Hz,0000000000c,0000000.000s, 030.6C,00002191
2016-06-19 07:34:19 r, 00.00m,0000595091Hz,0000000000c,0000000.000s, 030.9C,00002191
2016-06-19 07:44:19 r, 00.00m,0000595189Hz,0000000000c,0000000.000s, 030.9C,00002191
2016-06-19 07:54:20 r, 00.00m,0000595198Hz,0000000000c,0000000.000s, 030.9C,00002191
2016-06-19 08:04:19 r, 00.00m,0000595061Hz,0000000000c,0000000.000s, 031.9C,00002191
2016-06-19 08:14:20 r, 00.00m,0000594661Hz,0000000000c,0000000.000s, 034.1C,00002191
2016-06-19 08:24:20 r, 00.00m,0000594569Hz,0000000000c,0000000.000s, 036.0C,00002191
2016-06-19 08:34:20 r, 00.00m,0000594297Hz,0000000000c,0000000.000s, 038.0C,00002191
2016-06-19 08:44:20 r, 00.00m,0000594369Hz,0000000000c,0000000.000s, 037.7C,00002191
2016-06-19 08:54:19 r, 00.00m,0000594387Hz,0000000000c,0000000.000s, 037.3C,00002191
2016-06-19 09:04:20 r, 00.00m,0000594337Hz,0000000000c,0000000.000s, 037.7C,00002191
2016-06-19 09:14:21 r, 00.00m,0000594268Hz,0000000000c,0000000.000s, 038.6C,00002191
2016-06-19 09:24:20 r, 00.00m,0000594214Hz,0000000000c,0000000.000s, 039.3C,00002191
2016-06-19 09:34:19 r, 00.00m,0000594159Hz,0000000000c,0000000.000s, 039.0C,00002191
2016-06-19 09:44:20 r, 00.00m,0000594342Hz,0000000000c,0000000.000s, 038.0C,00002191
2016-06-19 09:54:20 r, 00.00m,0000594332Hz,0000000000c,0000000.000s, 038.3C,00002191
2016-06-19 10:04:20 r, 00.00m,0000594202Hz,0000000000c,0000000.000s, 039.0C,00002191
2016-06-19 10:14:21 r, 00.00m,0000594107Hz,0000000000c,0000000.000s, 039.6C,00002191
2016-06-19 10:24:20 r, 00.00m,0000594079Hz,0000000000c,0000000.000s, 040.2C,00002191
2016-06-19 10:34:20 r, 00.00m,0000594103Hz,0000000000c,0000000.000s, 039.9C,00002191
2016-06-19 10:44:20 r, 00.00m,0000594000Hz,0000000000c,0000000.000s, 040.6C,00002191
2016-06-19 10:54:20 r, 00.00m,0000593790Hz,0000000000c,0000000.000s, 041.5C,00002191
2016-06-19 11:04:20 r, 00.00m,0000593564Hz,0000000000c,0000000.000s, 043.5C,00002191
2016-06-19 11:14:20 r, 00.00m,0000593481Hz,0000000000c,0000000.000s, 044.1C,00002191
2016-06-19 11:24:20 r, 00.00m,0000593298Hz,0000000000c,0000000.000s, 045.4C,00002191
2016-06-19 11:34:20 r, 00.00m,0000593243Hz,0000000000c,0000000.000s, 045.7C,00002191
2016-06-19 11:44:20 r, 00.00m,0000593196Hz,0000000000c,0000000.000s, 045.7C,00002191
2016-06-19 11:54:20 r, 00.00m,0000593224Hz,0000000000c,0000000.000s, 046.0C,00002191
2016-06-19 12:04:20 r, 00.00m,0000593028Hz,0000000000c,0000000.000s, 046.7C,00002191
2016-06-19 12:14:20 r, 00.00m,0000593017Hz,0000000000c,0000000.000s, 047.0C,00002191
2016-06-19 12:24:20 r, 00.00m,0000592911Hz,0000000000c,0000000.000s, 048.3C,00002191
2016-06-19 12:34:20 r, 00.00m,0000592986Hz,0000000000c,0000000.000s, 047.3C,00002191
2016-06-19 12:44:20 r, 00.00m,0000593060Hz,0000000000c,0000000.000s, 047.7C,00002191
2016-06-19 12:54:20 r, 00.00m,0000592986Hz,0000000000c,0000000.000s, 048.0C,00002191
2016-06-19 13:04:20 r, 00.00m,0000592982Hz,0000000000c,0000000.000s, 048.0C,00002191
2016-06-19 13:14:20 r, 00.00m,0000592847Hz,0000000000c,0000000.000s, 048.9C,00002191
2016-06-19 13:24:20 r, 00.00m,0000592885Hz,0000000000c,0000000.000s, 047.7C,00002191
2016-06-19 13:34:20 r, 00.00m,0000592674Hz,0000000000c,0000000.000s, 048.9C,00002191
2016-06-19 13:44:20 r, 00.00m,0000592543Hz,0000000000c,0000000.000s, 050.2C,00002191
2016-06-19 13:54:20 r, 00.00m,0000592031Hz,0000000000c,0000000.000s, 052.8C,00002191
2016-06-19 14:04:20 r, 00.00m,0000591833Hz,0000000000c,0000000.000s, 053.8C,00002191
2016-06-19 14:14:20 r, 00.00m,0000591897Hz,0000000000c,0000000.000s, 053.8C,00002191
2016-06-19 14:24:20 r, 00.00m,0000591906Hz,0000000000c,0000000.000s, 054.4C,00002191
2016-06-19 14:34:20 r, 00.00m,0000592237Hz,0000000000c,0000000.000s, 051.8C,00002191
2016-06-19 14:44:20 r, 00.00m,0000592424Hz,0000000000c,0000000.000s, 051.5C,00002191
2016-06-19 14:54:20 r, 00.00m,0000592731Hz,0000000000c,0000000.000s, 049.6C,00002191
2016-06-19 15:04:20 r, 00.00m,0000592515Hz,0000000000c,0000000.000s, 050.6C,00002191
2016-06-19 15:14:20 r, 00.00m,0000593123Hz,0000000000c,0000000.000s, 047.7C,00002191
2016-06-19 15:24:20 r, 00.00m,0000592762Hz,0000000000c,0000000.000s, 048.9C,00002191
2016-06-19 15:34:20 r, 00.00m,0000592458Hz,0000000000c,0000000.000s, 050.6C,00002191
2016-06-19 15:44:20 r, 00.00m,0000592774Hz,0000000000c,0000000.000s, 048.6C,00002191
2016-06-19 15:54:20 r, 00.00m,0000592803Hz,0000000000c,0000000.000s, 048.0C,00002191
2016-06-19 16:04:20 r, 00.00m,0000592835Hz,0000000000c,0000000.000s, 048.0C,00002191
2016-06-19 16:14:20 r, 00.00m,0000592867Hz,0000000000c,0000000.000s, 048.0C,00002191
2016-06-19 16:24:20 r, 00.00m,0000592458Hz,0000000000c,0000000.000s, 050.6C,00002191
2016-06-19 16:34:20 r, 00.00m,0000592522Hz,0000000000c,0000000.000s, 050.2C,00002191
2016-06-19 16:44:21 r, 00.00m,0000592640Hz,0000000000c,0000000.000s, 049.9C,00002191
2016-06-19 16:54:20 r, 00.00m,0000592487Hz,0000000000c,0000000.000s, 049.9C,00002191
2016-06-19 17:04:20 r, 00.00m,0000592665Hz,0000000000c,0000000.000s, 048.9C,00002191
2016-06-19 17:14:22 r, 00.00m,0000592880Hz,0000000000c,0000000.000s, 047.7C,00002191
2016-06-19 17:24:20 r, 00.00m,0000592776Hz,0000000000c,0000000.000s, 048.3C,00002191
2016-06-19 17:34:20 r, 00.00m,0000592810Hz,0000000000c,0000000.000s, 048.6C,00002191
2016-06-19 17:44:22 r, 00.00m,0000592877Hz,0000000000c,0000000.000s, 048.0C,00002191
2016-06-19 17:54:20 r, 00.00m,0000593036Hz,0000000000c,0000000.000s, 047.0C,00002191
2016-06-19 18:04:20 r, 00.00m,0000593106Hz,0000000000c,0000000.000s, 046.7C,00002191
2016-06-19 18:14:21 r, 00.00m,0000593182Hz,0000000000c,0000000.000s, 046.0C,00002191
2016-06-19 18:24:20 r, 00.00m,0000593562Hz,0000000000c,0000000.000s, 043.8C,00002191
2016-06-19 18:34:20 r, 00.00m,0000593565Hz,0000000000c,0000000.000s, 043.1C,00002191
2016-06-19 18:44:20 r, 00.00m,0000593562Hz,0000000000c,0000000.000s, 042.2C,00002191
2016-06-19 18:54:20 r, 00.00m,0000593822Hz,0000000000c,0000000.000s, 041.5C,00002191
2016-06-19 19:04:20 r, 00.00m,0000593862Hz,0000000000c,0000000.000s, 040.6C,00002191
2016-06-19 19:14:21 r, 00.00m,0000593979Hz,0000000000c,0000000.000s, 039.6C,00002191
2016-06-19 19:24:20 r, 00.00m,0000594167Hz,0000000000c,0000000.000s, 039.0C,00002191
2016-06-19 19:34:20 r, 00.00m,0000594188Hz,0000000000c,0000000.000s, 038.3C,00002191
2016-06-19 19:44:20 r, 00.00m,0000594296Hz,0000000000c,0000000.000s, 037.7C,00002191
2016-06-19 19:54:22 r, 00.00m,0000594375Hz,0000000000c,0000000.000s, 037.3C,00002191
2016-06-19 20:04:20 r, 00.00m,0000594454Hz,0000000000c,0000000.000s, 036.7C,00002191
2016-06-19 20:14:20 r, 00.00m,0000594565Hz,0000000000c,0000000.000s, 036.0C,00002191
2016-06-19 20:24:21 r, 00.00m,0000594616Hz,0000000000c,0000000.000s, 035.4C,00002191
2016-06-19 20:34:20 r, 00.00m,0000593571Hz,0000000000c,0000000.000s, 034.8C,00002191
2016-06-19 20:44:20 r, 00.00m,0000512850Hz,0000000000c,0000000.000s, 034.1C,00002191
2016-06-19 20:54:20 r, 00.00m,0000425641Hz,0000000000c,0000000.000s, 033.5C,00002191
2016-06-19 21:04:20 r, 05.99m,0000339950Hz,0000000000c,0000000.000s, 032.8C,00002191
2016-06-19 21:14:20 r, 06.31m,0000253446Hz,0000000000c,0000000.000s, 032.2C,00002191
2016-06-19 21:24:21 r, 06.74m,0000170356Hz,0000000000c,0000000.000s, 031.5C,00002191
2016-06-19 21:34:20 r, 07.35m,0000097245Hz,0000000000c,0000000.000s, 030.9C,00002191
2016-06-19 21:44:20 r, 08.15m,0000046458Hz,0000000000c,0000000.000s, 030.2C,00002191
2016-06-19 21:54:20 r, 09.21m,0000017531Hz,0000000000c,0000000.000s, 029.9C,00002191
2016-06-19 22:04:20 r, 10.49m,0000005393Hz,0000000000c,0000000.000s, 029.6C,00002191
2016-06-19 22:14:20 r, 11.92m,0000001437Hz,0000000000c,0000000.000s, 029.3C,00002191
2016-06-19 22:24:20 r, 13.38m,0000000375Hz,0000000000c,0000000.000s, 029.0C,00002191
2016-06-19 22:34:20 r, 14.83m,0000000099Hz,0000004692c,0000000.010s, 028.6C,00002191
2016-06-19 22:44:20 r, 16.05m,0000000032Hz,0000014345c,0000000.031s, 028.6C,00002191
2016-06-19 22:54:20 r, 16.94m,0000000014Hz,0000032788c,0000000.071s, 028.3C,00002191
2016-06-19 23:04:20 r, 17.62m,0000000008Hz,0000061310c,0000000.133s, 028.0C,00002191
2016-06-19 23:14:20 r, 18.10m,0000000005Hz,0000094850c,0000000.206s, 027.7C,00002191
2016-06-19 23:24:20 r, 18.39m,0000000003Hz,0000123915c,0000000.269s, 027.3C,00002191
2016-06-19 23:34:20 r, 18.53m,0000000003Hz,0000143147c,0000000.311s, 027.3C,00002191
2016-06-19 23:44:20 r, 18.62m,0000000003Hz,0000154384c,0000000.335s, 027.0C,00002191
2016-06-19 23:54:20 r, 18.65m,0000000003Hz,0000158433c,0000000.344s, 027.0C,00002191
